This is the latest recevied weather packets stored in our database for station/object IK1PCD-11. If no packets are shown the sender has not sent any weather packets the latest 10 day(s).
| Time | Temp. | Humidity | Pressure | Rain* | Wind** | Luminosity | Snow |
|---|---|---|---|---|---|---|---|
| 1787958484 | 18.89° C | 100% | 1017.8 hPa | - | - | - | - |
| 1787957584 | 18.89° C | 100% | 1017.8 hPa | - | - | - | - |
| 1787956698 | 18.89° C | 100% | 1017.7 hPa | - | - | - | - |
| 1787955797 | 19.44° C | 100% | 1017.7 hPa | - | - | - | - |
| 1787954897 | 18.89° C | 100% | 1017.8 hPa | - | - | - | - |
| 1787953997 | 19.44° C | 100% | 1017.9 hPa | - | - | - | - |
| 1787950397 | 20° C | 100% | 1017.8 hPa | - | - | - | - |
| 1787949497 | 20° C | 100% | 1018 hPa | - | - | - | - |
| 1787948599 | 20° C | 100% | 1018.1 hPa | - | - | - | - |
| 1787947697 | 20.56° C | 100% | 1018.3 hPa | - | - | - | - |
| 1787946796 | 20.56° C | 100% | 1017.7 hPa | - | - | - | - |
| 1787945898 | 20.56° C | 100% | 1017.7 hPa | - | - | - | - |
| 1787944996 | 21.11° C | 100% | 1018.1 hPa | - | - | - | - |
| 1787944088 | 21.11° C | 100% | 1018.5 hPa | - | - | - | - |
| 1787943188 | 21.11° C | 100% | 1018.5 hPa | - | - | - | - |
| 1787942288 | 21.11° C | 100% | 1018.4 hPa | - | - | - | - |
| 1787941388 | 21.11° C | 100% | 1018.1 hPa | - | - | - | - |
| 1787940488 | 21.11° C | 100% | 1018 hPa | - | - | - | - |
| 1787939588 | 21.67° C | 100% | 1018.5 hPa | - | - | - | - |
| 1787935987 | 22.22° C | 100% | 1018.9 hPa | - | - | - | - |
| 1787935094 | 22.22° C | 100% | 1019.1 hPa | - | - | - | - |
| 1787934194 | 22.78° C | 100% | 1018.8 hPa | - | - | - | - |
| 1787933294 | 22.78° C | 100% | 1018.7 hPa | - | - | - | - |
| 1787932394 | 22.78° C | 100% | 1019.1 hPa | - | - | - | - |
| 1787931493 | 23.33° C | 100% | 1018.9 hPa | - | - | - | - |
* Rain since midnight (hover to see other rain measurements)
** Current wind speed in m/s (hover to see current wind gust speed)